Time,TemperatureF,DewpointF,PressureIn,WindDirection,WindDirectionDegrees,WindSpeedMPH,WindSpeedGustMPH,Humidity,HourlyPrecipIn,Conditions,Clouds,dailyrainin,SoftwareType,DateUTC
2013-02-20 00:00:00,16.2,10.2,30.04,SW,234,3.4,8.9,77,0.00,,,0.00,VWS V14.01,2013-02-20 05:00:00,
2013-02-20 00:02:00,16.2,10.2,30.04,WSW,257,4.0,7.8,77,0.00,,,0.00,VWS V14.01,2013-02-20 05:02:00,
2013-02-20 00:03:00,16.2,10.2,30.04,WSW,254,5.4,8.9,77,0.00,,,0.00,VWS V14.01,2013-02-20 05:03:00,
2013-02-20 00:04:00,16.2,10.2,30.04,West,263,4.7,8.9,77,0.00,,,0.00,VWS V14.01,2013-02-20 05:04:00,
2013-02-20 00:09:00,16.2,10.2,30.04,WSW,250,0.0,5.6,77,0.00,,,0.00,VWS V14.01,2013-02-20 05:09:00,
2013-02-20 00:15:00,16.2,10.2,30.04,SW,229,6.0,10.1,77,0.00,,,0.00,VWS V14.01,2013-02-20 05:15:00,
2013-02-20 00:21:00,16.2,10.2,30.04,SSW,208,4.0,6.7,77,0.00,,,0.00,VWS V14.01,2013-02-20 05:21:00,
2013-02-20 00:26:00,16.2,10.2,30.04,WSW,251,0.0,7.8,77,0.00,,,0.00,VWS V14.01,2013-02-20 05:26:00,
2013-02-20 00:32:00,16.2,10.2,30.04,West,271,0.0,6.7,77,0.00,,,0.00,VWS V14.01,2013-02-20 05:32:00,
2013-02-20 00:37:00,16.2,10.2,30.04,West,272,0.0,0.0,77,0.00,,,0.00,VWS V14.01,2013-02-20 05:37:00,
2013-02-20 00:42:00,16.2,10.2,30.04,West,261,0.0,0.0,77,0.00,,,0.00,VWS V14.01,2013-02-20 05:42:00,
2013-02-20 00:47:00,16.2,10.2,30.04,NW,307,4.7,7.8,77,0.00,,,0.00,VWS V14.01,2013-02-20 05:47:00,
2013-02-20 00:53:00,16.2,10.2,30.04,WSW,238,3.4,8.9,77,0.00,,,0.00,VWS V14.01,2013-02-20 05:53:00,
2013-02-20 00:58:00,16.2,10.2,30.04,WSW,249,0.0,0.0,77,0.00,,,0.00,VWS V14.01,2013-02-20 05:58:00,
2013-02-20 01:03:00,16.2,10.2,30.04,WSW,243,0.0,0.0,77,0.00,,,0.00,VWS V14.01,2013-02-20 06:03:00,
2013-02-20 01:08:00,16.2,10.2,30.04,West,273,0.0,0.0,77,0.00,,,0.00,VWS V14.01,2013-02-20 06:08:00,
2013-02-20 01:14:00,16.2,10.2,30.04,WSW,252,0.0,0.0,77,0.00,,,0.00,VWS V14.01,2013-02-20 06:14:00,
2013-02-20 01:21:00,16.2,10.2,30.04,West,264,0.0,0.0,77,0.00,,,0.00,VWS V14.01,2013-02-20 06:21:00,
2013-02-20 01:27:00,16.2,10.2,30.04,West,260,0.0,6.7,77,0.00,,,0.00,VWS V14.01,2013-02-20 06:27:00,
2013-02-20 01:32:00,16.0,10.1,30.04,West,266,4.0,6.7,77,0.00,,,0.00,VWS V14.01,2013-02-20 06:32:00,
2013-02-20 01:38:00,16.0,10.1,30.04,SW,232,0.0,0.0,77,0.00,,,0.00,VWS V14.01,2013-02-20 06:38:00,
2013-02-20 01:43:00,16.0,10.1,30.07,WSW,248,0.0,5.6,77,0.00,,,0.00,VWS V14.01,2013-02-20 06:43:00,
2013-02-20 01:49:00,16.0,10.1,30.07,WSW,244,0.0,0.0,77,0.00,,,0.00,VWS V14.01,2013-02-20 06:49:00,
2013-02-20 01:54:00,16.0,9.8,30.07,WSW,241,0.0,0.0,76,0.00,,,0.00,VWS V14.01,2013-02-20 06:54:00,
2013-02-20 01:59:00,16.0,9.8,30.07,WSW,254,5.4,8.9,76,0.00,,,0.00,VWS V14.01,2013-02-20 06:59:00,
2013-02-20 02:05:00,16.0,9.8,30.07,WSW,237,0.0,7.8,76,0.00,,,0.00,VWS V14.01,2013-02-20 07:05:00,
2013-02-20 02:12:00,16.0,9.8,30.07,West,266,4.7,7.8,76,0.00,,,0.00,VWS V14.01,2013-02-20 07:12:00,
2013-02-20 02:17:00,16.0,9.8,30.07,West,265,0.0,0.0,76,0.00,,,0.00,VWS V14.01,2013-02-20 07:17:00,
2013-02-20 02:22:00,16.0,9.8,30.07,WSW,244,0.0,6.7,76,0.00,,,0.00,VWS V14.01,2013-02-20 07:22:00,
2013-02-20 02:27:00,16.0,9.8,30.07,WSW,241,4.7,7.8,76,0.00,,,0.00,VWS V14.01,2013-02-20 07:27:00,
2013-02-20 02:32:00,16.0,9.8,30.07,SW,233,0.0,0.0,76,0.00,,,0.00,VWS V14.01,2013-02-20 07:32:00,
2013-02-20 02:38:00,15.8,9.9,30.07,West,280,0.0,6.7,77,0.00,,,0.00,VWS V14.01,2013-02-20 07:38:00,
2013-02-20 02:43:00,16.0,9.8,30.07,SW,224,0.0,0.0,76,0.00,,,0.00,VWS V14.01,2013-02-20 07:43:00,
2013-02-20 02:48:00,16.0,9.8,30.07,WNW,301,3.4,6.7,76,0.00,,,0.00,VWS V14.01,2013-02-20 07:48:00,
2013-02-20 02:53:00,15.8,9.9,30.07,WSW,257,4.0,7.8,77,0.00,,,0.00,VWS V14.01,2013-02-20 07:53:00,
2013-02-20 02:59:00,16.0,9.8,30.07,West,261,4.7,7.8,76,0.00,,,0.00,VWS V14.01,2013-02-20 07:59:00,
2013-02-20 03:06:00,16.0,9.8,30.07,West,268,0.0,0.0,76,0.00,,,0.00,VWS V14.01,2013-02-20 08:06:00,
2013-02-20 03:12:00,16.0,9.8,30.07,WSW,237,3.4,5.6,76,0.00,,,0.00,VWS V14.01,2013-02-20 08:12:00,
2013-02-20 03:17:00,16.0,9.8,30.07,WNW,282,0.0,6.7,76,0.00,,,0.00,VWS V14.01,2013-02-20 08:17:00,
2013-02-20 03:22:00,16.0,9.8,30.07,West,278,3.4,5.6,76,0.00,,,0.00,VWS V14.01,2013-02-20 08:22:00,
2013-02-20 03:27:00,16.0,9.8,30.07,WNW,297,0.0,6.7,76,0.00,,,0.00,VWS V14.01,2013-02-20 08:27:00,
2013-02-20 03:33:00,16.0,9.8,30.07,West,272,4.0,6.7,76,0.00,,,0.00,VWS V14.01,2013-02-20 08:33:00,
2013-02-20 03:38:00,16.0,9.8,30.07,NW,320,3.4,6.7,76,0.00,,,0.00,VWS V14.01,2013-02-20 08:38:00,
2013-02-20 03:44:00,16.2,9.9,30.07,West,281,0.0,0.0,76,0.00,,,0.00,VWS V14.01,2013-02-20 08:44:00,
2013-02-20 03:49:00,16.2,10.2,30.07,WSW,255,0.0,0.0,77,0.00,,,0.00,VWS V14.01,2013-02-20 08:49:00,
2013-02-20 03:56:00,16.2,10.2,30.10,West,273,4.0,6.7,77,0.00,,,0.00,VWS V14.01,2013-02-20 08:56:00,
2013-02-20 04:01:00,16.0,10.1,30.10,WSW,244,0.0,0.0,77,0.00,,,0.00,VWS V14.01,2013-02-20 09:01:00,
2013-02-20 04:06:00,16.2,10.2,30.10,WNW,288,0.0,0.0,77,0.00,,,0.00,VWS V14.01,2013-02-20 09:06:00,
2013-02-20 04:11:00,16.2,10.2,30.10,West,277,4.0,6.7,77,0.00,,,0.00,VWS V14.01,2013-02-20 09:11:00,
2013-02-20 04:17:00,16.0,10.1,30.10,WNW,287,3.4,6.7,77,0.00,,,0.00,VWS V14.01,2013-02-20 09:17:00,
2013-02-20 04:22:00,16.0,10.1,30.10,West,266,3.4,7.8,77,0.00,,,0.00,VWS V14.01,2013-02-20 09:22:00,
2013-02-20 04:27:00,16.0,10.1,30.10,West,268,4.0,6.7,77,0.00,,,0.00,VWS V14.01,2013-02-20 09:27:00,
2013-02-20 04:32:00,16.0,10.1,30.10,WNW,297,0.0,6.7,77,0.00,,,0.00,VWS V14.01,2013-02-20 09:32:00,
2013-02-20 04:37:00,16.0,10.1,30.10,West,262,0.0,0.0,77,0.00,,,0.00,VWS V14.01,2013-02-20 09:37:00,
2013-02-20 04:42:00,16.0,10.1,30.10,West,278,3.4,8.9,77,0.00,,,0.00,VWS V14.01,2013-02-20 09:42:00,
2013-02-20 04:47:00,16.0,10.1,30.10,West,280,4.7,11.2,77,0.00,,,0.00,VWS V14.01,2013-02-20 09:47:00,
2013-02-20 04:52:00,16.0,10.1,30.10,West,270,4.0,6.7,77,0.00,,,0.00,VWS V14.01,2013-02-20 09:52:00,
2013-02-20 04:58:00,16.0,10.1,30.10,West,276,0.0,5.6,77,0.00,,,0.00,VWS V14.01,2013-02-20 09:58:00,
2013-02-20 05:03:00,16.0,9.8,30.10,West,275,4.7,8.9,76,0.00,,,0.00,VWS V14.01,2013-02-20 10:03:00,
2013-02-20 05:08:00,16.0,9.8,30.10,West,265,0.0,7.8,76,0.00,,,0.00,VWS V14.01,2013-02-20 10:08:00,
2013-02-20 05:14:00,16.0,9.8,30.10,WSW,244,0.0,7.8,76,0.00,,,0.00,VWS V14.01,2013-02-20 10:14:00,
2013-02-20 05:19:00,16.0,9.8,30.10,WNW,299,0.0,8.9,76,0.00,,,0.00,VWS V14.01,2013-02-20 10:19:00,
2013-02-20 05:24:00,16.0,9.8,30.13,West,271,0.0,6.7,76,0.00,,,0.00,VWS V14.01,2013-02-20 10:24:00,
2013-02-20 05:29:00,16.0,9.8,30.13,WNW,295,0.0,10.1,76,0.00,,,0.00,VWS V14.01,2013-02-20 10:29:00,
2013-02-20 05:34:00,16.0,9.8,30.13,WNW,282,4.0,6.7,76,0.00,,,0.00,VWS V14.01,2013-02-20 10:34:00,
2013-02-20 05:41:00,16.2,9.9,30.13,West,272,3.4,8.9,76,0.00,,,0.00,VWS V14.01,2013-02-20 10:41:00,
2013-02-20 05:46:00,16.2,9.9,30.13,West,268,0.0,6.7,76,0.00,,,0.00,VWS V14.01,2013-02-20 10:46:00,
2013-02-20 05:51:00,16.2,9.9,30.13,WNW,283,0.0,6.7,76,0.00,,,0.00,VWS V14.01,2013-02-20 10:51:00,
2013-02-20 05:56:00,16.3,10.1,30.13,WSW,241,3.4,5.6,76,0.00,,,0.00,VWS V14.01,2013-02-20 10:56:00,
2013-02-20 06:02:00,16.3,10.1,30.13,WNW,290,0.0,0.0,76,0.00,,,0.00,VWS V14.01,2013-02-20 11:02:00,
2013-02-20 06:08:00,16.3,10.1,30.13,West,268,0.0,6.7,76,0.00,,,0.00,VWS V14.01,2013-02-20 11:08:00,
2013-02-20 06:13:00,16.3,10.1,30.13,SW,230,4.7,7.8,76,0.00,,,0.00,VWS V14.01,2013-02-20 11:13:00,
2013-02-20 06:18:00,16.5,10.3,30.13,WNW,286,4.0,10.1,76,0.00,,,0.00,VWS V14.01,2013-02-20 11:18:00,
2013-02-20 06:24:00,16.5,10.3,30.13,West,281,0.0,8.9,76,0.00,,,0.00,VWS V14.01,2013-02-20 11:24:00,
2013-02-20 06:29:00,16.3,10.1,30.13,WNW,286,4.7,8.9,76,0.00,,,0.00,VWS V14.01,2013-02-20 11:29:00,
2013-02-20 06:34:00,16.3,10.1,30.13,SW,235,0.0,12.3,76,0.00,,,0.00,VWS V14.01,2013-02-20 11:34:00,
2013-02-20 06:39:00,16.3,10.1,30.13,WSW,247,6.0,11.2,76,0.00,,,0.00,VWS V14.01,2013-02-20 11:39:00,
2013-02-20 06:46:00,16.3,10.1,30.13,West,280,6.0,10.1,76,0.00,,,0.00,VWS V14.01,2013-02-20 11:46:00,
2013-02-20 06:52:00,16.3,10.1,30.13,West,279,4.7,10.1,76,0.00,,,0.00,VWS V14.01,2013-02-20 11:52:00,
2013-02-20 06:57:00,16.3,10.1,30.13,West,268,0.0,5.6,76,0.00,,,0.00,VWS V14.01,2013-02-20 11:57:00,
2013-02-20 07:02:00,16.5,10.0,30.13,West,265,0.0,5.6,75,0.00,,,0.00,VWS V14.01,2013-02-20 12:02:00,
2013-02-20 07:07:00,16.5,10.0,30.13,West,260,5.4,8.9,75,0.00,,,0.00,VWS V14.01,2013-02-20 12:07:00,
2013-02-20 07:12:00,16.5,10.0,30.13,West,268,0.0,6.7,75,0.00,,,0.00,VWS V14.01,2013-02-20 12:12:00,
2013-02-20 07:17:00,16.5,10.0,30.13,WNW,289,4.0,7.8,75,0.00,,,0.00,VWS V14.01,2013-02-20 12:17:00,
2013-02-20 07:22:00,16.5,10.0,30.13,West,274,4.0,13.4,75,0.00,,,0.00,VWS V14.01,2013-02-20 12:22:00,
2013-02-20 07:27:00,16.5,10.0,30.16,WSW,249,3.4,10.1,75,0.00,,,0.00,VWS V14.01,2013-02-20 12:27:00,
2013-02-20 07:32:00,16.7,10.2,30.16,WNW,283,4.0,10.1,75,0.00,,,0.00,VWS V14.01,2013-02-20 12:32:00,
2013-02-20 07:37:00,16.7,10.2,30.16,West,280,5.4,11.2,75,0.00,,,0.00,VWS V14.01,2013-02-20 12:37:00,
2013-02-20 07:42:00,16.7,10.2,30.16,West,279,5.4,10.1,75,0.00,,,0.00,VWS V14.01,2013-02-20 12:42:00,
2013-02-20 07:47:00,16.9,10.3,30.16,WNW,298,6.0,11.2,75,0.00,,,0.00,VWS V14.01,2013-02-20 12:47:00,
2013-02-20 07:52:00,16.9,10.3,30.16,West,270,4.7,12.3,75,0.00,,,0.00,VWS V14.01,2013-02-20 12:52:00,
2013-02-20 07:57:00,16.9,10.3,30.16,WNW,288,5.4,10.1,75,0.00,,,0.00,VWS V14.01,2013-02-20 12:57:00,
2013-02-20 08:02:00,17.1,10.5,30.16,WNW,289,7.4,12.3,75,0.00,,,0.00,VWS V14.01,2013-02-20 13:02:00,
2013-02-20 08:08:00,17.2,10.7,30.16,West,268,6.0,10.1,75,0.00,,,0.00,VWS V14.01,2013-02-20 13:08:00,
2013-02-20 08:14:00,17.4,10.9,30.16,WNW,289,5.4,10.1,75,0.00,,,0.00,VWS V14.01,2013-02-20 13:14:00,
2013-02-20 08:19:00,17.6,11.0,30.16,WNW,284,4.7,10.1,75,0.00,,,0.00,VWS V14.01,2013-02-20 13:19:00,
2013-02-20 08:24:00,17.8,11.2,30.16,WNW,292,6.0,10.1,75,0.00,,,0.00,VWS V14.01,2013-02-20 13:24:00,
2013-02-20 08:31:00,18.1,11.6,30.16,West,280,6.0,10.1,75,0.00,,,0.00,VWS V14.01,2013-02-20 13:31:00,
2013-02-20 08:37:00,18.3,11.7,30.16,WNW,291,6.0,13.4,75,0.00,,,0.00,VWS V14.01,2013-02-20 13:37:00,
2013-02-20 08:42:00,18.7,12.1,30.16,WNW,286,8.7,14.5,75,0.00,,,0.00,VWS V14.01,2013-02-20 13:42:00,
2013-02-20 08:47:00,19.0,12.4,30.16,WNW,284,5.4,8.9,75,0.00,,,0.00,VWS V14.01,2013-02-20 13:47:00,
2013-02-20 08:52:00,19.4,12.8,30.16,WSW,256,8.1,13.4,75,0.00,,,0.00,VWS V14.01,2013-02-20 13:52:00,
2013-02-20 08:57:00,19.8,12.8,30.16,West,275,0.0,0.0,74,0.00,,,0.00,VWS V14.01,2013-02-20 13:57:00,
2013-02-20 09:03:00,20.1,13.2,30.16,West,265,6.0,10.1,74,0.00,,,0.00,VWS V14.01,2013-02-20 14:03:00,
2013-02-20 09:08:00,20.5,13.5,30.16,West,276,4.0,10.1,74,0.00,,,0.00,VWS V14.01,2013-02-20 14:08:00,
2013-02-20 09:13:00,21.0,14.1,30.19,WNW,287,4.0,8.9,74,0.00,,,0.00,VWS V14.01,2013-02-20 14:13:00,
2013-02-20 09:19:00,21.2,14.2,30.19,WSW,248,0.0,10.1,74,0.00,,,0.00,VWS V14.01,2013-02-20 14:19:00,
2013-02-20 09:24:00,21.4,14.1,30.16,West,278,4.0,8.9,73,0.00,,,0.00,VWS V14.01,2013-02-20 14:24:00,
2013-02-20 09:29:00,22.1,14.8,30.16,WNW,286,4.7,8.9,73,0.00,,,0.00,VWS V14.01,2013-02-20 14:29:00,
2013-02-20 09:34:00,22.3,14.6,30.16,WNW,286,4.0,13.4,72,0.00,,,0.00,VWS V14.01,2013-02-20 14:34:00,
2013-02-20 09:39:00,22.6,15.0,30.16,WNW,288,5.4,8.9,72,0.00,,,0.00,VWS V14.01,2013-02-20 14:39:00,
2013-02-20 09:45:00,23.0,15.0,30.16,West,259,8.1,13.4,71,0.00,,,0.00,VWS V14.01,2013-02-20 14:45:00,
2013-02-20 09:51:00,23.4,14.7,30.16,West,281,6.0,10.1,69,0.00,,,0.00,VWS V14.01,2013-02-20 14:51:00,
2013-02-20 09:56:00,23.7,15.1,30.19,West,266,7.4,14.5,69,0.00,,,0.00,VWS V14.01,2013-02-20 14:56:00,
2013-02-20 10:02:00,24.3,15.2,30.19,West,279,5.4,15.7,68,0.00,,,0.00,VWS V14.01,2013-02-20 15:02:00,
2013-02-20 10:08:00,24.8,15.8,30.19,NW,312,5.4,8.9,68,0.00,,,0.00,VWS V14.01,2013-02-20 15:08:00,
2013-02-20 10:13:00,25.2,15.8,30.19,WNW,290,6.0,10.1,67,0.00,,,0.00,VWS V14.01,2013-02-20 15:13:00,
2013-02-20 10:18:00,25.3,15.9,100.00,WNW,292,0.0,7.8,67,0.00,,,0.00,VWS V14.01,2013-02-20 15:18:00,
2013-02-20 10:23:00,25.5,15.8,30.19,WNW,298,4.0,12.3,66,0.00,,,0.00,VWS V14.01,2013-02-20 15:23:00,
2013-02-20 10:29:00,26.1,15.6,30.19,WNW,289,6.0,14.5,64,0.00,,,0.00,VWS V14.01,2013-02-20 15:29:00,
2013-02-20 10:34:00,26.1,15.2,30.19,WNW,287,8.7,14.5,63,0.00,,,0.00,VWS V14.01,2013-02-20 15:34:00,
2013-02-20 10:39:00,26.2,14.6,30.19,WNW,301,7.4,14.5,61,0.00,,,0.00,VWS V14.01,2013-02-20 15:39:00,
2013-02-20 10:44:00,26.8,15.1,30.19,WNW,302,7.4,13.4,61,0.00,,,0.00,VWS V14.01,2013-02-20 15:44:00,
2013-02-20 10:49:00,27.0,14.9,30.19,NW,320,4.7,8.9,60,0.00,,,0.00,VWS V14.01,2013-02-20 15:49:00,
2013-02-20 10:54:00,26.8,14.0,30.19,WSW,238,4.7,13.4,58,0.00,,,0.00,VWS V14.01,2013-02-20 15:54:00,
2013-02-20 10:59:00,27.0,14.2,30.19,WNW,285,4.7,7.8,58,0.00,,,0.00,VWS V14.01,2013-02-20 15:59:00,
2013-02-20 11:04:00,27.9,15.0,30.19,WNW,282,5.4,8.9,58,0.00,,,0.00,VWS V14.01,2013-02-20 16:04:00,
2013-02-20 11:11:00,28.0,15.2,30.19,WSW,254,5.4,13.4,58,0.00,,,0.00,VWS V14.01,2013-02-20 16:11:00,
2013-02-20 11:16:00,28.2,15.0,30.19,NW,308,4.7,10.1,57,0.00,,,0.00,VWS V14.01,2013-02-20 16:16:00,
2013-02-20 11:22:00,28.0,14.4,30.19,WNW,302,6.0,12.3,56,0.00,,,0.00,VWS V14.01,2013-02-20 16:22:00,
2013-02-20 11:27:00,28.4,14.7,30.22,West,277,3.4,12.3,56,0.00,,,0.00,VWS V14.01,2013-02-20 16:27:00,
2013-02-20 11:33:00,28.2,14.1,30.22,West,277,5.4,10.1,55,0.00,,,0.00,VWS V14.01,2013-02-20 16:33:00,
2013-02-20 11:39:00,28.2,14.6,30.22,WNW,298,8.1,13.4,56,0.00,,,0.00,VWS V14.01,2013-02-20 16:39:00,
2013-02-20 11:44:00,28.2,14.6,30.22,WNW,283,6.0,10.1,56,0.00,,,0.00,VWS V14.01,2013-02-20 16:44:00,
2013-02-20 11:49:00,28.2,14.6,30.22,WNW,296,4.7,7.8,56,0.00,,,0.00,VWS V14.01,2013-02-20 16:49:00,
2013-02-20 11:54:00,27.9,14.2,30.22,West,281,8.7,14.5,56,0.00,,,0.00,VWS V14.01,2013-02-20 16:54:00,
2013-02-20 12:01:00,28.6,14.5,30.22,West,273,6.0,12.3,55,0.00,,,0.00,VWS V14.01,2013-02-20 17:01:00,
2013-02-20 12:06:00,28.9,14.8,30.22,WSW,242,0.0,8.9,55,0.00,,,0.00,VWS V14.01,2013-02-20 17:06:00,
2013-02-20 12:12:00,29.7,15.5,30.22,WNW,286,4.0,10.1,55,0.00,,,0.00,VWS V14.01,2013-02-20 17:12:00,
2013-02-20 12:17:00,29.3,14.3,30.22,WNW,289,6.7,13.4,53,0.00,,,0.00,VWS V14.01,2013-02-20 17:17:00,
2013-02-20 12:22:00,29.7,15.1,30.22,WNW,286,4.0,10.1,54,0.00,,,0.00,VWS V14.01,2013-02-20 17:22:00,
2013-02-20 12:27:00,29.7,15.1,30.22,WNW,283,4.0,8.9,54,0.00,,,0.00,VWS V14.01,2013-02-20 17:27:00,
2013-02-20 12:32:00,30.4,15.7,30.22,WNW,284,4.0,10.1,54,0.00,,,0.00,VWS V14.01,2013-02-20 17:32:00,
2013-02-20 12:37:00,30.6,15.5,30.22,West,273,6.0,10.1,53,0.00,,,0.00,VWS V14.01,2013-02-20 17:37:00,
2013-02-20 12:42:00,30.2,15.1,30.22,West,276,3.4,10.1,53,0.00,,,0.00,VWS V14.01,2013-02-20 17:42:00,
2013-02-20 12:47:00,30.7,15.2,30.22,SW,214,0.0,0.0,52,0.00,,,0.00,VWS V14.01,2013-02-20 17:47:00,
2013-02-20 12:53:00,30.7,15.2,30.22,WNW,282,0.0,7.8,52,0.00,,,0.00,VWS V14.01,2013-02-20 17:53:00,
2013-02-20 12:58:00,30.6,15.0,30.22,WNW,291,4.0,7.8,52,0.00,,,0.00,VWS V14.01,2013-02-20 17:58:00,
2013-02-20 13:03:00,30.7,15.2,30.22,WNW,283,4.7,8.9,52,0.00,,,0.00,VWS V14.01,2013-02-20 18:03:00,
2013-02-20 13:08:00,30.6,15.0,30.22,WSW,255,4.7,10.1,52,0.00,,,0.00,VWS V14.01,2013-02-20 18:08:00,
2013-02-20 13:13:00,30.6,14.6,30.22,WNW,288,5.4,8.9,51,0.00,,,0.00,VWS V14.01,2013-02-20 18:13:00,
2013-02-20 13:19:00,30.2,14.3,30.22,West,264,4.0,6.7,51,0.00,,,0.00,VWS V14.01,2013-02-20 18:19:00,
2013-02-20 13:24:00,30.0,14.1,30.22,West,263,3.4,7.8,51,0.00,,,0.00,VWS V14.01,2013-02-20 18:24:00,
2013-02-20 13:30:00,30.4,14.4,30.22,WNW,299,5.4,8.9,51,0.00,,,0.00,VWS V14.01,2013-02-20 18:30:00,
2013-02-20 13:36:00,30.7,14.8,30.22,WSW,254,3.4,7.8,51,0.00,,,0.00,VWS V14.01,2013-02-20 18:36:00,
2013-02-20 13:41:00,30.2,14.3,30.22,WNW,298,8.1,13.4,51,0.00,,,0.00,VWS V14.01,2013-02-20 18:41:00,
2013-02-20 13:47:00,30.2,14.3,30.22,West,280,8.7,14.5,51,0.00,,,0.00,VWS V14.01,2013-02-20 18:47:00,
2013-02-20 13:52:00,30.2,14.3,30.22,NW,314,8.7,15.7,51,0.00,,,0.00,VWS V14.01,2013-02-20 18:52:00,
2013-02-20 13:57:00,30.2,13.8,30.22,WNW,284,9.4,15.7,50,0.00,,,0.00,VWS V14.01,2013-02-20 18:57:00,
2013-02-20 14:02:00,30.0,13.6,30.22,NW,307,12.1,20.1,50,0.00,,,0.00,VWS V14.01,2013-02-20 19:02:00,
2013-02-20 14:08:00,28.8,11.6,30.22,NW,306,6.0,13.4,48,0.00,,,0.00,VWS V14.01,2013-02-20 19:08:00,
2013-02-20 14:13:00,29.1,12.4,30.22,West,268,6.0,13.4,49,0.00,,,0.00,VWS V14.01,2013-02-20 19:13:00,
2013-02-20 14:18:00,29.3,13.0,30.22,NW,313,6.0,14.5,50,0.00,,,0.00,VWS V14.01,2013-02-20 19:18:00,
2013-02-20 14:23:00,28.9,12.6,30.22,WNW,302,8.1,15.7,50,0.00,,,0.00,VWS V14.01,2013-02-20 19:23:00,
2013-02-20 14:28:00,28.9,12.6,30.22,WNW,294,5.4,12.3,50,0.00,,,0.00,VWS V14.01,2013-02-20 19:28:00,
2013-02-20 14:34:00,28.9,13.1,30.22,WNW,290,4.0,8.9,51,0.00,,,0.00,VWS V14.01,2013-02-20 19:34:00,
2013-02-20 14:39:00,28.6,12.8,30.22,West,267,7.4,13.4,51,0.00,,,0.00,VWS V14.01,2013-02-20 19:39:00,
2013-02-20 14:44:00,28.2,12.4,30.22,WNW,294,3.4,7.8,51,0.00,,,0.00,VWS V14.01,2013-02-20 19:44:00,
2013-02-20 14:49:00,28.6,12.8,30.22,West,267,0.0,10.1,51,0.00,,,0.00,VWS V14.01,2013-02-20 19:49:00,
2013-02-20 14:54:00,27.9,12.1,30.25,NW,312,5.4,8.9,51,0.00,,,0.00,VWS V14.01,2013-02-20 19:54:00,
2013-02-20 14:59:00,27.5,11.8,30.25,West,272,4.7,8.9,51,0.00,,,0.00,VWS V14.01,2013-02-20 19:59:00,
2013-02-20 15:04:00,27.0,11.3,30.25,West,265,4.0,7.8,51,0.00,,,0.00,VWS V14.01,2013-02-20 20:04:00,
2013-02-20 15:09:00,26.8,11.1,30.25,West,267,4.7,10.1,51,0.00,,,0.00,VWS V14.01,2013-02-20 20:09:00,
2013-02-20 15:14:00,26.6,11.4,30.25,WSW,257,6.0,12.3,52,0.00,,,0.00,VWS V14.01,2013-02-20 20:14:00,
2013-02-20 15:19:00,26.1,10.9,30.25,West,269,6.0,12.3,52,0.00,,,0.00,VWS V14.01,2013-02-20 20:19:00,
2013-02-20 15:24:00,25.9,10.7,30.28,West,266,4.7,12.3,52,0.00,,,0.00,VWS V14.01,2013-02-20 20:24:00,
2013-02-20 15:29:00,25.9,10.7,30.28,WSW,237,5.4,12.3,52,0.00,,,0.00,VWS V14.01,2013-02-20 20:29:00,
2013-02-20 15:34:00,25.7,10.9,30.28,West,263,5.4,8.9,53,0.00,,,0.00,VWS V14.01,2013-02-20 20:34:00,
2013-02-20 15:39:00,25.3,10.6,30.28,WNW,294,6.0,10.1,53,0.00,,,0.00,VWS V14.01,2013-02-20 20:39:00,
2013-02-20 15:44:00,25.3,10.6,30.28,NNW,327,3.4,8.9,53,0.00,,,0.00,VWS V14.01,2013-02-20 20:44:00,
2013-02-20 15:49:00,25.3,10.6,30.28,WNW,288,7.4,12.3,53,0.00,,,0.00,VWS V14.01,2013-02-20 20:49:00,
2013-02-20 15:54:00,25.3,11.0,30.28,WNW,301,4.7,8.9,54,0.00,,,0.00,VWS V14.01,2013-02-20 20:54:00,
2013-02-20 15:59:00,25.2,10.9,30.28,WSW,244,3.4,10.1,54,0.00,,,0.00,VWS V14.01,2013-02-20 20:59:00,
2013-02-20 16:04:00,25.3,11.0,30.28,WNW,289,7.4,12.3,54,0.00,,,0.00,VWS V14.01,2013-02-20 21:04:00,
2013-02-20 16:11:00,25.3,11.4,30.28,West,273,4.7,15.7,55,0.00,,,0.00,VWS V14.01,2013-02-20 21:11:00,
2013-02-20 16:16:00,25.3,11.4,30.28,West,261,5.4,13.4,55,0.00,,,0.00,VWS V14.01,2013-02-20 21:16:00,
2013-02-20 16:21:00,25.3,11.9,30.28,WNW,292,5.4,12.3,56,0.00,,,0.00,VWS V14.01,2013-02-20 21:21:00,
2013-02-20 16:26:00,25.3,11.9,30.28,WNW,288,8.1,14.5,56,0.00,,,0.00,VWS V14.01,2013-02-20 21:26:00,
2013-02-20 16:32:00,25.2,11.7,30.28,WNW,301,9.4,15.7,56,0.00,,,0.00,VWS V14.01,2013-02-20 21:32:00,
2013-02-20 16:37:00,25.3,11.9,30.28,NW,305,5.4,14.5,56,0.00,,,0.00,VWS V14.01,2013-02-20 21:37:00,
2013-02-20 16:43:00,25.2,11.7,30.28,NW,304,5.4,15.7,56,0.00,,,0.00,VWS V14.01,2013-02-20 21:43:00,
2013-02-20 16:48:00,24.8,11.3,30.28,NW,304,5.4,14.5,56,0.00,,,0.00,VWS V14.01,2013-02-20 21:48:00,
2013-02-20 16:53:00,24.8,11.7,30.28,West,277,7.4,14.5,57,0.00,,,0.00,VWS V14.01,2013-02-20 21:53:00,
2013-02-20 16:58:00,24.8,11.7,30.28,WNW,295,4.7,8.9,57,0.00,,,0.00,VWS V14.01,2013-02-20 21:58:00,
2013-02-20 17:03:00,24.8,11.7,30.28,WNW,301,5.4,10.1,57,0.00,,,0.00,VWS V14.01,2013-02-20 22:03:00,
2013-02-20 17:08:00,24.8,11.7,30.28,WNW,301,4.0,7.8,57,0.00,,,0.00,VWS V14.01,2013-02-20 22:08:00,
2013-02-20 17:13:00,24.6,12.0,30.25,NW,314,6.0,10.1,58,0.00,,,0.00,VWS V14.01,2013-02-20 22:13:00,
2013-02-20 17:18:00,24.6,12.0,30.25,NW,314,4.0,7.8,58,0.00,,,0.00,VWS V14.01,2013-02-20 22:18:00,
2013-02-20 17:23:00,24.4,11.8,30.25,NW,321,6.0,10.1,58,0.00,,,0.00,VWS V14.01,2013-02-20 22:23:00,
2013-02-20 17:28:00,24.3,11.6,30.25,NW,305,5.4,12.3,58,0.00,,,0.00,VWS V14.01,2013-02-20 22:28:00,
2013-02-20 17:33:00,24.1,11.8,30.25,NW,323,6.0,10.1,59,0.00,,,0.00,VWS V14.01,2013-02-20 22:33:00,
2013-02-20 17:38:00,23.9,11.7,30.25,NW,320,4.0,8.9,59,0.00,,,0.00,VWS V14.01,2013-02-20 22:38:00,
2013-02-20 17:43:00,23.7,11.5,30.25,NW,312,4.0,8.9,59,0.00,,,0.00,VWS V14.01,2013-02-20 22:43:00,
2013-02-20 17:48:00,23.7,11.9,30.25,NNW,328,3.4,8.9,60,0.00,,,0.00,VWS V14.01,2013-02-20 22:48:00,
2013-02-20 17:53:00,23.4,11.5,30.25,NW,305,4.7,10.1,60,0.00,,,0.00,VWS V14.01,2013-02-20 22:53:00,
2013-02-20 17:58:00,23.0,11.2,30.28,NW,313,4.0,7.8,60,0.00,,,0.00,VWS V14.01,2013-02-20 22:58:00,
2013-02-20 18:03:00,22.8,11.0,30.28,NW,320,4.7,8.9,60,0.00,,,0.00,VWS V14.01,2013-02-20 23:03:00,
2013-02-20 18:08:00,22.8,11.4,30.28,NW,316,6.0,10.1,61,0.00,,,0.00,VWS V14.01,2013-02-20 23:08:00,
2013-02-20 18:13:00,22.6,11.2,30.28,NW,310,4.0,10.1,61,0.00,,,0.00,VWS V14.01,2013-02-20 23:13:00,
2013-02-20 18:18:00,22.5,11.1,30.28,NW,311,6.0,10.1,61,0.00,,,0.00,VWS V14.01,2013-02-20 23:18:00,
2013-02-20 18:23:00,22.3,11.2,30.28,NW,317,7.4,14.5,62,0.00,,,0.00,VWS V14.01,2013-02-20 23:23:00,
2013-02-20 18:28:00,22.3,11.2,30.28,NNW,336,5.4,8.9,62,0.00,,,0.00,VWS V14.01,2013-02-20 23:28:00,
2013-02-20 18:33:00,22.1,11.1,30.28,NW,313,4.0,6.7,62,0.00,,,0.00,VWS V14.01,2013-02-20 23:33:00,
2013-02-20 18:38:00,22.1,11.1,30.28,WNW,286,4.0,8.9,62,0.00,,,0.00,VWS V14.01,2013-02-20 23:38:00,
2013-02-20 18:43:00,21.9,10.9,30.28,WNW,303,6.0,14.5,62,0.00,,,0.00,VWS V14.01,2013-02-20 23:43:00,
2013-02-20 18:48:00,21.9,10.9,30.28,NNW,331,4.0,10.1,62,0.00,,,0.00,VWS V14.01,2013-02-20 23:48:00,
2013-02-20 18:53:00,21.9,11.3,30.28,NW,325,4.7,8.9,63,0.00,,,0.00,VWS V14.01,2013-02-20 23:53:00,
2013-02-20 18:58:00,21.9,11.3,30.28,NNW,327,6.0,10.1,63,0.00,,,0.00,VWS V14.01,2013-02-20 23:58:00,
2013-02-20 19:03:00,21.7,11.1,30.28,NW,304,4.0,7.8,63,0.00,,,0.00,VWS V14.01,2013-02-21 00:03:00,
2013-02-20 19:09:00,21.7,11.4,30.28,NNW,340,4.7,10.1,64,0.00,,,0.00,VWS V14.01,2013-02-21 00:09:00,
2013-02-20 19:14:00,21.7,11.4,30.28,NNW,345,4.0,6.7,64,0.00,,,0.00,VWS V14.01,2013-02-21 00:14:00,
2013-02-20 19:19:00,21.7,11.4,30.28,NW,307,4.7,12.3,64,0.00,,,0.00,VWS V14.01,2013-02-21 00:19:00,
2013-02-20 19:24:00,21.7,11.4,30.28,NW,314,5.4,11.2,64,0.00,,,0.00,VWS V14.01,2013-02-21 00:24:00,
2013-02-20 19:29:00,21.7,11.4,30.28,WNW,303,7.4,12.3,64,0.00,,,0.00,VWS V14.01,2013-02-21 00:29:00,
2013-02-20 19:34:00,21.7,11.4,30.28,NW,317,6.7,11.2,64,0.00,,,0.00,VWS V14.01,2013-02-21 00:34:00,
2013-02-20 19:39:00,21.7,11.4,30.28,NW,322,0.0,10.1,64,0.00,,,0.00,VWS V14.01,2013-02-21 00:39:00,
2013-02-20 19:46:00,21.6,11.3,30.28,North,0,4.0,10.1,64,0.00,,,0.00,VWS V14.01,2013-02-21 00:46:00,
2013-02-20 19:51:00,21.6,11.3,30.28,NW,319,4.0,10.1,64,0.00,,,0.00,VWS V14.01,2013-02-21 00:51:00,
2013-02-20 19:56:00,21.6,11.3,30.31,NNW,337,5.4,12.3,64,0.00,,,0.00,VWS V14.01,2013-02-21 00:56:00,
2013-02-20 20:01:00,21.6,11.3,30.31,NW,311,5.4,13.4,64,0.00,,,0.00,VWS V14.01,2013-02-21 01:01:00,
2013-02-20 20:07:00,21.6,11.3,30.31,NW,319,5.4,10.1,64,0.00,,,0.00,VWS V14.01,2013-02-21 01:07:00,
2013-02-20 20:12:00,21.4,11.1,30.28,NW,307,8.1,13.4,64,0.00,,,0.00,VWS V14.01,2013-02-21 01:12:00,
2013-02-20 20:17:00,21.4,11.1,30.28,NW,318,8.7,20.7,64,0.00,,,0.00,VWS V14.01,2013-02-21 01:17:00,
2013-02-20 20:22:00,21.4,11.1,30.28,NW,310,5.4,14.5,64,0.00,,,0.00,VWS V14.01,2013-02-21 01:22:00,
2013-02-20 20:27:00,21.4,11.1,30.31,North,353,4.7,13.4,64,0.00,,,0.00,VWS V14.01,2013-02-21 01:27:00,
2013-02-20 20:32:00,21.4,11.1,30.31,NW,320,5.4,10.1,64,0.00,,,0.00,VWS V14.01,2013-02-21 01:32:00,
2013-02-20 20:37:00,21.4,11.1,30.31,NNW,340,8.1,13.4,64,0.00,,,0.00,VWS V14.01,2013-02-21 01:37:00,
2013-02-20 20:43:00,21.4,11.5,30.28,NNW,332,5.4,10.1,65,0.00,,,0.00,VWS V14.01,2013-02-21 01:43:00,
2013-02-20 20:48:00,21.4,11.5,30.28,NNW,330,3.4,7.8,65,0.00,,,0.00,VWS V14.01,2013-02-21 01:48:00,
2013-02-20 20:54:00,21.4,11.5,30.31,WNW,300,4.7,7.8,65,0.00,,,0.00,VWS V14.01,2013-02-21 01:54:00,
2013-02-20 20:59:00,21.4,11.5,30.31,NW,320,4.0,8.9,65,0.00,,,0.00,VWS V14.01,2013-02-21 01:59:00,
2013-02-20 21:04:00,21.4,11.5,30.31,NNW,328,3.4,10.1,65,0.00,,,0.00,VWS V14.01,2013-02-21 02:04:00,
2013-02-20 21:09:00,21.2,11.3,30.31,NW,320,6.0,13.4,65,0.00,,,0.00,VWS V14.01,2013-02-21 02:09:00,
2013-02-20 21:16:00,21.2,11.6,30.31,NNW,342,5.4,10.1,66,0.00,,,0.00,VWS V14.01,2013-02-21 02:16:00,
2013-02-20 21:22:00,21.2,11.6,30.31,NNW,345,4.7,12.3,66,0.00,,,0.00,VWS V14.01,2013-02-21 02:22:00,
2013-02-20 21:27:00,21.2,11.6,30.31,North,353,4.0,8.9,66,0.00,,,0.00,VWS V14.01,2013-02-21 02:27:00,
2013-02-20 21:32:00,21.2,11.6,30.31,North,350,5.4,8.9,66,0.00,,,0.00,VWS V14.01,2013-02-21 02:32:00,
2013-02-20 21:37:00,21.2,11.6,30.31,NNW,346,5.4,11.2,66,0.00,,,0.00,VWS V14.01,2013-02-21 02:37:00,
2013-02-20 21:43:00,21.2,11.6,30.31,North,353,4.0,10.1,66,0.00,,,0.00,VWS V14.01,2013-02-21 02:43:00,
2013-02-20 21:49:00,21.2,11.6,30.31,NNW,335,5.4,10.1,66,0.00,,,0.00,VWS V14.01,2013-02-21 02:49:00,
2013-02-20 21:54:00,21.2,11.6,30.31,NNW,345,4.0,8.9,66,0.00,,,0.00,VWS V14.01,2013-02-21 02:54:00,
2013-02-20 21:59:00,21.2,11.6,30.31,North,357,4.7,7.8,66,0.00,,,0.00,VWS V14.01,2013-02-21 02:59:00,
2013-02-20 22:04:00,21.2,11.6,30.31,North,357,4.7,8.9,66,0.00,,,0.00,VWS V14.01,2013-02-21 03:04:00,
2013-02-20 22:10:00,21.2,11.6,30.28,NNW,338,3.4,8.9,66,0.00,,,0.00,VWS V14.01,2013-02-21 03:10:00,
2013-02-20 22:16:00,21.2,12.0,30.28,North,357,4.7,7.8,67,0.00,,,0.00,VWS V14.01,2013-02-21 03:16:00,
2013-02-20 22:21:00,21.2,12.0,30.28,North,3,4.7,7.8,67,0.00,,,0.00,VWS V14.01,2013-02-21 03:21:00,
2013-02-20 22:27:00,21.2,12.0,30.28,North,4,4.7,10.1,67,0.00,,,0.00,VWS V14.01,2013-02-21 03:27:00,
2013-02-20 22:33:00,21.2,12.0,30.28,North,357,6.0,10.1,67,0.00,,,0.00,VWS V14.01,2013-02-21 03:33:00,
2013-02-20 22:38:00,21.2,12.0,30.28,North,357,4.7,7.8,67,0.00,,,0.00,VWS V14.01,2013-02-21 03:38:00,
2013-02-20 22:43:00,21.2,12.0,30.28,North,353,4.0,6.7,67,0.00,,,0.00,VWS V14.01,2013-02-21 03:43:00,
2013-02-20 22:48:00,21.2,12.0,30.28,NNE,13,5.4,10.1,67,0.00,,,0.00,VWS V14.01,2013-02-21 03:48:00,
2013-02-20 22:53:00,21.2,12.0,30.28,North,11,0.0,0.0,67,0.00,,,0.00,VWS V14.01,2013-02-21 03:53:00,
2013-02-20 22:58:00,21.2,12.0,30.31,North,11,0.0,0.0,67,0.00,,,0.00,VWS V14.01,2013-02-21 03:58:00,
2013-02-20 23:03:00,21.2,12.0,30.31,North,11,5.4,10.1,67,0.00,,,0.00,VWS V14.01,2013-02-21 04:03:00,
2013-02-20 23:08:00,21.2,12.0,30.31,North,350,4.0,8.9,67,0.00,,,0.00,VWS V14.01,2013-02-21 04:08:00,
2013-02-20 23:13:00,21.2,12.0,30.31,North,0,4.7,8.9,67,0.00,,,0.00,VWS V14.01,2013-02-21 04:13:00,
2013-02-20 23:18:00,21.2,12.0,30.31,North,353,4.0,6.7,67,0.00,,,0.00,VWS V14.01,2013-02-21 04:18:00,
2013-02-20 23:23:00,21.2,12.0,30.31,NNW,348,3.4,7.8,67,0.00,,,0.00,VWS V14.01,2013-02-21 04:23:00,
2013-02-20 23:28:00,21.0,11.8,30.31,North,353,4.0,8.9,67,0.00,,,0.00,VWS V14.01,2013-02-21 04:28:00,
2013-02-20 23:34:00,21.0,12.1,30.31,NNW,345,4.0,8.9,68,0.00,,,0.00,VWS V14.01,2013-02-21 04:34:00,
2013-02-20 23:39:00,21.0,12.1,30.28,North,349,3.4,8.9,68,0.00,,,0.00,VWS V14.01,2013-02-21 04:39:00,
2013-02-20 23:44:00,21.0,12.1,30.28,North,353,0.0,8.9,68,0.00,,,0.00,VWS V14.01,2013-02-21 04:44:00,
2013-02-20 23:49:00,20.8,12.0,30.28,North,357,0.0,0.0,68,0.00,,,0.00,VWS V14.01,2013-02-21 04:49:00,
2013-02-20 23:54:00,20.8,12.0,30.31,NNW,334,0.0,0.0,68,0.00,,,0.00,VWS V14.01,2013-02-21 04:54:00,
2013-02-20 23:59:00,20.8,12.0,30.31,NW,325,0.0,0.0,68,0.00,,,0.00,VWS V14.01,2013-02-21 04:59:00,